Location: *
(47.7167°N, 1.7333°W)
Time: 00:34:36
(UTC+00:00)

CZ-4 R/B - Pass Details

Date: 09 April 2020
Orbit: 532 x 598 km, 97.8° (Epoch: 30 May)

Event Time Altitude Azimuth Distance (km) Brightness Sun altitude
Rises 19:34:01 0° 207° (SSW) 2,665 4.9 -8.1°
Reaches altitude 10° 19:36:47 10° 230° (SW) 1,781 4.3 -8.5°
Maximum altitude 19:39:12 16° 269° (W) 1,447 4.6 -8.9°
Drops below altitude 10° 19:41:38 10° 308° (NW) 1,797 5.4 -9.3°
Sets 19:44:28 0° 331° (NNW) 2,702 5.8 -9.7°
